Location: ??????
(55.6500°N, 37.8000°E)
Time: 05:32:58
(UTC+00:00)

USA 229 DEB - Visible Passes

Search period start: 16 July 2024 00:00
Search period end: 26 July 2024 00:00
Orbit: 892 x 1319 km, 63.4° (Epoch: 30 May)

Date Brightness Start Highest point End Pass type
(mag) Time Alt. Az. Time Alt. Az. Time Alt. Az.
16 Jul 4.4 21:00:58 17° SSE 21:04:45 32° ESE 21:10:36 10° ENE visible
16 Jul 3.7 22:48:39 10° SW 22:55:01 86° NW 23:02:08 10° NE visible
17 Jul 4.8 20:16:59 14° SSE 20:20:19 22° ESE 20:25:11 10° ENE visible
17 Jul 3.6 22:04:21 13° SW 22:10:06 74° SE 22:17:06 10° NE visible
17 Jul 4.4 23:55:04 10° W 00:01:27 54° NNW 00:08:34 10° ENE visible
18 Jul 5.2 19:32:54 10° SE 19:35:59 14° ESE 19:39:12 10° ENE visible
18 Jul 3.8 21:20:18 16° SSW 21:25:19 55° SE 21:32:02 10° NE visible
18 Jul 4.1 23:09:52 10° WSW 23:16:17 62° NNW 23:23:25 10° NE visible
19 Jul 4.1 20:36:08 16° S 20:40:39 39° ESE 20:46:55 10° NE visible
19 Jul 3.8 22:24:48 10° WSW 22:31:11 76° NW 22:38:20 10° NE visible
20 Jul 4.8 00:16:37 10° W 00:23:01 47° N 00:30:08 10° ENE visible
20 Jul 4.5 19:51:51 13° SSE 19:56:08 27° ESE 20:01:38 10° ENE visible
20 Jul 3.6 21:39:52 10° SW 21:46:11 86° SE 21:53:17 10° NE visible
20 Jul 4.6 23:31:22 10° W 23:37:45 50° NNW 23:44:51 10° ENE visible
21 Jul 4.9 19:07:39 10° SSE 19:11:44 18° ESE 19:16:03 10° ENE visible
21 Jul 3.6 20:55:09 10° SSW 21:01:20 66° SE 21:08:14 10° NE visible
21 Jul 4.3 22:46:09 10° W 22:52:32 57° NNW 22:59:39 10° ENE visible
22 Jul 3.8 20:10:40 10° SSW 20:16:36 48° SE 20:23:09 10° NE visible
22 Jul 4.0 22:01:00 10° WSW 22:07:23 67° NNW 22:14:32 10° NE visible
22 Jul 4.9 23:52:56 10° WNW 23:59:22 46° N 00:06:30 10° ENE visible
23 Jul 4.2 19:26:31 10° S 19:32:00 34° ESE 19:37:59 10° ENE visible
23 Jul 3.7 21:15:57 10° SW 21:22:20 83° NW 21:29:28 10° NE visible
23 Jul 4.8 23:07:41 10° W 23:14:04 48° N 23:21:10 10° ENE visible
24 Jul 4.6 18:42:47 10° SSE 18:47:32 23° ESE 18:52:36 10° ENE visible
24 Jul 3.5 20:31:07 10° SW 20:37:24 78° SE 20:44:25 10° NE visible
24 Jul 4.5 22:22:26 10° W 22:28:49 52° NNW 22:35:56 10° ENE visible
25 Jul 5.0 00:14:24 10° WNW 00:21:00 47° N 00:28:19 10° E visible
25 Jul 3.6 19:46:29 10° SSW 19:52:36 58° SE 19:59:22 10° NE visible
25 Jul 4.2 21:37:14 10° WSW 21:43:37 61° NNW 21:50:46 10° NE visible
25 Jul 5.0 23:29:13 10° WNW 23:35:42 46° N 23:42:53 10° ENE visible
